• In Hungary
  • List of Countries
  • For 7 days
  • Water Temperature
  • Satellite Maps
  • Weather Map
  • News
  • Weather Widgets
  • user-avatar
    Login

    Hourly Weather Lesohim

    Today, 21 June, Thursday

    Time Temperature Precipitation Wind Pressure Humidity
    00:00 +14°C° 0 mm 3 mps 748 mmHg 72%
    01:00 +13°C° 0 mm 3 mps 748 mmHg 74%
    02:00 +13°C° 0 mm 3 mps 748 mmHg 76%
    03:00 +13°C° 0 mm 2 mps 748 mmHg 77%
    04:00 +13°C° 0 mm 3 mps 748 mmHg 75%
    05:00 +14°C° 0 mm 3 mps 749 mmHg 73%
    06:00 +14°C° 0 mm 3 mps 749 mmHg 71%
    07:00 +17°C° 0 mm 4 mps 749 mmHg 64%
    08:00 +19°C° 0 mm 5 mps 749 mmHg 57%
    09:00 +21°C° 0 mm 6 mps 749 mmHg 50%
    10:00 +22°C° 0 mm 6 mps 749 mmHg 49%
    11:00 +22°C° 0 mm 6 mps 748 mmHg 48%
    12:00 +23°C° 0 mm 6 mps 748 mmHg 47%
    13:00 +24°C° 0 mm 6 mps 748 mmHg 48%
    14:00 +24°C° 0 mm 6 mps 748 mmHg 48%
    15:00 +26°C° 0 mm 6 mps 748 mmHg 48%
    16:00 +26°C° 0 mm 5 mps 748 mmHg 52%
    17:00 +25°C° 0 mm 4 mps 748 mmHg 55%
    18:00 +25°C° 0 mm 4 mps 748 mmHg 59%
    19:00 +22°C° 0 mm 3 mps 748 mmHg 66%
    20:00 +21°C° 0 mm 3 mps 748 mmHg 72%
    21:00 +19°C° 0 mm 2 mps 749 mmHg 79%
    22:00 +18°C° 0 mm 2 mps 749 mmHg 83%
    23:00 +18°C° 0 mm 2 mps 749 mmHg 86%

    Tomorrow, 22 June, Friday

    Time Temperature Precipitation Wind Pressure Humidity
    00:00 +17°C° 0 mm 2 mps 749 mmHg 90%
    01:00 +16°C° 0 mm 2 mps 749 mmHg 91%
    02:00 +16°C° 0 mm 2 mps 749 mmHg 92%
    03:00 +16°C° 0 mm 1 mps 749 mmHg 93%
    04:00 +18°C° 0 mm 1 mps 749 mmHg 90%
    05:00 +18°C° 0 mm 1 mps 749 mmHg 87%
    06:00 +19°C° 0 mm 1 mps 749 mmHg 84%
    07:00 +20°C° 0 mm 2 mps 749 mmHg 77%
    08:00 +23°C° 0 mm 2 mps 749 mmHg 70%
    09:00 +25°C° 0 mm 3 mps 749 mmHg 63%
    10:00 +26°C° 0 mm 3 mps 749 mmHg 59%
    11:00 +27°C° 0 mm 3 mps 749 mmHg 55%
    12:00 +28°C° 0 mm 4 mps 749 mmHg 52%
    13:00 +29°C° 0 mm 4 mps 749 mmHg 52%
    14:00 +29°C° 0 mm 4 mps 748 mmHg 52%
    15:00 +29°C° 0 mm 5 mps 748 mmHg 52%
    16:00 +29°C° 0 mm 4 mps 748 mmHg 56%
    17:00 +29°C° 0 mm 4 mps 748 mmHg 59%
    18:00 +28°C° 0 mm 4 mps 747 mmHg 63%
    19:00 +26°C° 0 mm 3 mps 747 mmHg 71%
    20:00 +25°C° 0 mm 3 mps 748 mmHg 79%
    21:00 +22°C° 0 mm 3 mps 748 mmHg 87%
    22:00 +21°C° 0 mm 2 mps 748 mmHg 89%
    23:00 +21°C° 0 mm 2 mps 748 mmHg 92%

    Day after tomorrow, 23 June, Saturday

    Time Temperature Precipitation Wind Pressure Humidity
    00:00 +20°C° 0 mm 2 mps 748 mmHg 95%
    01:00 +20°C° 0 mm 2 mps 748 mmHg 95%
    02:00 +19°C° 0 mm 2 mps 748 mmHg 95%
    03:00 +19°C° 0 mm 2 mps 748 mmHg 96%
    04:00 +19°C° 0 mm 2 mps 748 mmHg 93%
    05:00 +20°C° 0 mm 2 mps 748 mmHg 91%
    06:00 +21°C° 0 mm 2 mps 748 mmHg 88%
    07:00 +22°C° 0 mm 3 mps 748 mmHg 82%
    08:00 +25°C° 0 mm 3 mps 748 mmHg 75%
    09:00 +27°C° 0 mm 4 mps 748 mmHg 68%
    10:00 +28°C° 0 mm 4 mps 748 mmHg 62%
    11:00 +29°C° 0 mm 5 mps 748 mmHg 56%
    12:00 +30°C° 0 mm 5 mps 747 mmHg 51%
    13:00 +30°C° 0 mm 6 mps 747 mmHg 50%
    14:00 +32°C° 0 mm 6 mps 747 mmHg 49%
    15:00 +32°C° 0 mm 6 mps 747 mmHg 48%
    16:00 +30°C° 0 mm 6 mps 746 mmHg 51%
    17:00 +30°C° 0 mm 5 mps 746 mmHg 53%
    18:00 +30°C° 0 mm 5 mps 746 mmHg 56%
    19:00 +28°C° 0 mm 4 mps 746 mmHg 62%
    20:00 +26°C° 0 mm 4 mps 746 mmHg 67%
    21:00 +25°C° 0 mm 4 mps 746 mmHg 73%
    22:00 +23°C° 0.1 mm 4 mps 746 mmHg 74%
    23:00 +23°C° 0.1 mm 4 mps 746 mmHg 75%

    24 June, Sunday

    Time Temperature Precipitation Wind Pressure Humidity
    00:00 +22°C° 0.1 mm 4 mps 746 mmHg 76%
    01:00 +22°C° 0 mm 3 mps 746 mmHg 77%
    02:00 +21°C° 0 mm 3 mps 746 mmHg 78%
    03:00 +20°C° 0 mm 3 mps 746 mmHg 79%
    04:00 +21°C° 0.3 mm 3 mps 746 mmHg 79%
    05:00 +21°C° 0.3 mm 4 mps 745 mmHg 78%
    06:00 +21°C° 0.3 mm 4 mps 745 mmHg 77%
    07:00 +22°C° 0.2 mm 4 mps 745 mmHg 75%
    08:00 +23°C° 0.2 mm 5 mps 746 mmHg 73%
    09:00 +23°C° 0.2 mm 5 mps 746 mmHg 71%
    10:00 +22°C° 0.7 mm 5 mps 746 mmHg 76%
    11:00 +21°C° 0.7 mm 5 mps 747 mmHg 82%
    12:00 +20°C° 0.7 mm 5 mps 747 mmHg 87%
    13:00 +19°C° 0.4 mm 5 mps 748 mmHg 88%
    14:00 +18°C° 0.4 mm 4 mps 748 mmHg 88%
    15:00 +17°C° 0.4 mm 4 mps 749 mmHg 89%
    16:00 +17°C° 0 mm 3 mps 749 mmHg 84%
    17:00 +18°C° 0 mm 3 mps 750 mmHg 79%
    18:00 +18°C° 0 mm 3 mps 750 mmHg 73%
    19:00 +17°C° 0 mm 2 mps 751 mmHg 77%
    20:00 +16°C° 0 mm 1 mps 751 mmHg 82%
    21:00 +15°C° 0 mm 1 mps 752 mmHg 86%
    22:00 +14°C° 0 mm 1 mps 752 mmHg 87%
    23:00 +14°C° 0 mm 1 mps 752 mmHg 89%

    25 June, Monday

    Time Temperature Precipitation Wind Pressure Humidity
    00:00 +13°C° 0 mm 1 mps 752 mmHg 90%
    01:00 +13°C° 0 mm 1 mps 752 mmHg 91%
    02:00 +13°C° 0 mm 1 mps 753 mmHg 92%
    03:00 +13°C° 0 mm 1 mps 753 mmHg 93%
    04:00 +14°C° 0 mm 1 mps 753 mmHg 90%
    05:00 +15°C° 0 mm 1 mps 753 mmHg 87%
    06:00 +15°C° 0 mm 1 mps 753 mmHg 83%
    07:00 +18°C° 0 mm 1 mps 754 mmHg 76%
    08:00 +20°C° 0 mm 1 mps 754 mmHg 69%
    09:00 +22°C° 0 mm 1 mps 754 mmHg 61%
    10:00 +23°C° 0 mm 2 mps 754 mmHg 56%
    11:00 +24°C° 0 mm 2 mps 753 mmHg 51%
    12:00 +25°C° 0 mm 2 mps 753 mmHg 46%
    13:00 +25°C° 0 mm 2 mps 753 mmHg 47%
    14:00 +25°C° 0 mm 2 mps 753 mmHg 48%
    15:00 +25°C° 0 mm 2 mps 753 mmHg 49%
    16:00 +25°C° 0 mm 2 mps 753 mmHg 52%
    17:00 +24°C° 0 mm 2 mps 753 mmHg 54%
    18:00 +24°C° 0 mm 2 mps 753 mmHg 57%
    19:00 +21°C° 0 mm 2 mps 753 mmHg 64%
    20:00 +19°C° 0 mm 2 mps 753 mmHg 70%
    21:00 +17°C° 0 mm 2 mps 753 mmHg 77%
    22:00 +16°C° 0 mm 2 mps 753 mmHg 80%
    23:00 +15°C° 0 mm 2 mps 754 mmHg 83%

    26 June, Tuesday

    Time Temperature Precipitation Wind Pressure Humidity
    00:00 +14°C° 0 mm 2 mps 754 mmHg 85%
    01:00 +14°C° 0 mm 2 mps 754 mmHg 87%
    02:00 +13°C° 0 mm 2 mps 754 mmHg 89%
    03:00 +13°C° 0 mm 1 mps 754 mmHg 91%
    04:00 +14°C° 0 mm 1 mps 754 mmHg 88%
    05:00 +14°C° 0 mm 1 mps 754 mmHg 86%
    06:00 +15°C° 0 mm 1 mps 754 mmHg 83%
    07:00 +17°C° 0 mm 2 mps 754 mmHg 75%
    08:00 +19°C° 0 mm 2 mps 754 mmHg 67%
    09:00 +21°C° 0 mm 2 mps 754 mmHg 60%
    10:00 +23°C° 0 mm 2 mps 754 mmHg 55%
    11:00 +24°C° 0 mm 2 mps 754 mmHg 51%
    12:00 +25°C° 0 mm 2 mps 753 mmHg 46%
    13:00 +25°C° 0 mm 2 mps 753 mmHg 46%
    14:00 +26°C° 0 mm 2 mps 753 mmHg 46%
    15:00 +26°C° 0 mm 2 mps 753 mmHg 45%
    16:00 +25°C° 0 mm 2 mps 753 mmHg 49%
    17:00 +24°C° 0 mm 2 mps 753 mmHg 53%
    18:00 +24°C° 0 mm 2 mps 753 mmHg 57%
    19:00 +21°C° 0.1 mm 2 mps 753 mmHg 64%
    20:00 +19°C° 0.1 mm 2 mps 753 mmHg 71%
    21:00 +17°C° 0.1 mm 2 mps 753 mmHg 78%
    22:00 +16°C° 0 mm 2 mps 753 mmHg 81%
    23:00 +15°C° 0 mm 2 mps 753 mmHg 84%
    Show more